COSMOS 332

Satellite information

Favourite Embed

Satellite Type and Status

PAYLOADIN ORBIT

Key statistics

Satellite COSMOS 332 at a glance.

Uptime

20336

Days in orbit

Revolutions

≈ 14.5

Per day

Orbit

LEO

Low Earth Orbit

Inclination

74.0

Latest

Satellite identification and parameters

Extended collection of information and parameters for COSMOS 332.

Object identification

Identified? True

Debris? False

Object name: COSMOS 332

International designator: 1970-028A

Object number (NORAD): 4369

Object ID (CCSDS): 4369

Country: COMMONWEALTH OF INDEPENDENT STATES (CIS)

Current information (Y/N): Y

RCS size: LARGE

Orbital parameters

Period: 99.1 minutes

Inclination: 74.036 deg

SMA: 7093.769 km

Apoapsis: 719.652 km

Periapsis: 711.615 km

RAAN: 257.5955 deg

Eccentricy: 0.00056653

Argument of periapsis: 179.7029 deg

Mean anomaly: 180.4138 deg

Mean motion: 14.53072351 rev/day

Mean motion (dot): 0.00000503 rev/day2

B* drag term: 0.00012854372 1/REarth

Two-line elements (TLE)

Creation date: Dec. 12, 2025, 10:14 a.m.

Reference frame: TEME

Reference center: EARTH

Epoch: Dec. 12, 2025, 5:33 a.m. UTC

TLE line 0: 0 COSMOS 332

TLE line 1: 1 04369U 70028A 25346.23135624 .00000503 00000-0 12854-3 0 9996

TLE line 2: 2 04369 74.0360 257.5955 0005665 179.7029 180.4138 14.53072351940941

Live tracking on map

Real-time ground track for satellite COSMOS 332.

In-orbit conjunctions

A list of the most updated potential collisions computed for object COSMOS 332.

Target Orbit TCA Probability of collision Miss distance Type
FENGYUN 1C DEB SSO 2025-12-09 03:42:09 0.0001588872 56.0 (m) DEBRIS
FENGYUN 1C DEB * SSO 2025-09-17 21:41:24 0.0001690951 962.0 (m) DEBRIS
COSMOS 1275 DEB LEO 2024-12-21 19:11:49 0.000132782 284.0 (m) DEBRIS
IRIDIUM 33 DEB LEO 2024-09-01 02:03:28 0.000192409 115.0 (m) DEBRIS
FENGYUN 1C DEB SSO 2024-08-21 19:26:27 0.0001614215 580.0 (m) DEBRIS

Associated space launch

The first soviet navigation system called Tsiklon consisted of Zaliv satellites in low earth orbit.

COSMOS 332 was lifted into orbit during the mission ‘Kosmos-3M | Zaliv 5’, on board a Kosmos-3M space rocket.

The launch took place on April 11, 1970, 5 p.m. from 132/2.

For more information about the launch, click the button.

Launch to space Kosmos-3M | Zaliv 5
Kosmos-3M | Zaliv 5

Agency: N/A

Status: Launch Successful

Launch date: April 11, 1970, 5 p.m. UTC

Rocket: Kosmos-3M

Launch pad: 132/2

Location: Plesetsk Cosmodrome, Russian Federation

...

Latest news about this satellite

There are no fresh news available about this satellite. Check back as we update our databases every day.


Newsletter sign-up

Weekly statistics, charts and insights to help you stay on top of the space industry.